Погода в Шестакове

Россия / Тюменская область     56°41′36″N   66°58′28″E
темп.,
°C
ветер,
м/с
пор.,
м/с
влажн.,
%
обл.,
%
осадки,
мм/ч
давл.,
гПа
погр.,
м
21 апреля, ср
ср2123:00+3зсз4136224 0.0 1025280
02:000сз38775 0.0 1026155
05:00−1ссз25915 0.0 102894
08:00+4с37695 0.0 1029415
11:00+8с47485 0.0 10301322
14:00+9с5649100 0.0 10311700
17:00+8ссв4552100 0.0 10321121
20:00+6ссв23627 0.0 103454
22 апреля, чт
чт2223:00+3вюв23655 0.0 103649
02:00+2юв39682 0.0 1037187
05:000ююв39725 0.0 1039191
08:00+4ююв58545 0.0 1040417
11:00+9ююв56425 0.0 10391024
14:00+11ююв56395 0.0 10391447
17:00+12ю564150 0.0 10381653
20:00+8ююв51151100 0.0 1038410
23 апреля, пт
пт2323:00+6ююв61347100 0.0 1038462
02:00+5ююв51346100 0.0 1037395
05:00+4ююв5125395 0.0 1037288
08:00+7ююв5953100 0.0 1037323
11:00+12ю6844100 0.0 1036865
14:00+13ю6839100 0.0 10351549
17:00+12ю5840100 0.0 10351152
20:00+9ююв41042100 0.0 1035421
24 апреля, сб
сб2423:00+7ююв41149100 0.0 1034326
02:00+6ююв41152100 0.0 1033288
05:00+5ююв41056100 0.0 1032236
08:00+7ююв51047100 0.0 1031386
11:00+10ююв5837100 0.0 1030743
14:00+10ю5838100 0.0 10291071
17:00+10ююв4741100 0.0 10281375
20:00+9юв3943100 0.0 1027363
25 апреля, вс
вс2523:00+7юв41146100 0.0 1026339
02:00+7юв41149100 0.0 1024286
05:00+5юв41155100 0.0 1023285
08:00+8юв51248100 0.0 1022478
11:00+11ююв61139100 0.0 1020907
14:00+14ююв693082 0.0 10181933
17:00+14юв5936100 0.0 10171458
20:00+11юз6115381 0.0 1016578